Location: Bletchingley
(51.2333°N, 0.1000°W)
Time: 22:53:18
(UTC+00:00)

ATLAS 2AS CENTAUR R/B - Pass Details

Date: 18 September 2020
Orbit: 939 x 1273 km, 63.7° (Epoch: 27 October)

Event Time Altitude Azimuth Distance (km) Brightness Sun altitude
Exits shadow 22:59:06 27° 258° (WSW) 2,223 4.3 -36.1°
Maximum altitude 23:03:32 57° 325° (NW) 1,469 3.5 -36.3°
Drops below altitude 10° 23:11:11 10° 44° (NE) 3,185 5.5 -36.6°
Sets 23:13:58 0° 49° (NE) 4,115 6.1 -36.7°
